Location: Caltech
(34.1382°N, 118.1253°W)
Time: 00:24:10
(UTC-07:00)

Iridium 94 - Visible Passes

Search period start: 24 April 2017 00:00
Search period end: 04 May 2017 00:00
Orbit: 776 x 779 km, 86.4° (Epoch: 22 April)

Date Brightness Start Highest point End Pass type
(mag) Time Alt. Az. Time Alt. Az. Time Alt. Az.
24 Apr 7.5 04:31:01 10° SE 04:35:24 28° E 04:39:48 10° NNE visible
25 Apr 8.3 03:59:23 10° ESE 04:02:10 15° E 04:04:58 10° NE visible
25 Apr 5.7 05:37:19 10° SSW 05:42:21 51° W 05:47:26 10° N visible
26 Apr 5.6 05:03:37 10° S 05:08:50 83° E 05:14:03 10° N visible
27 Apr 6.8 04:30:32 10° SSE 04:35:24 42° E 04:40:18 10° NNE visible
28 Apr 7.8 03:58:12 10° SE 04:02:06 22° E 04:06:01 10° NNE visible
29 Apr 8.5 03:27:36 10° E 03:28:55 11° ENE 03:30:15 10° ENE visible
29 Apr 5.5 05:03:46 10° S 05:08:56 66° W 05:14:08 10° N visible
30 Apr 5.9 04:30:19 10° S 04:35:27 63° E 04:40:37 10° N visible
01 May 7.2 03:57:30 10° SSE 04:02:04 32° E 04:06:40 10° NNE visible
02 May 8.1 03:25:34 10° ESE 03:28:49 17° E 03:32:04 10° NE visible
02 May 5.9 05:04:09 10° SSW 05:09:06 44° W 05:14:04 10° NNW visible
03 May 5.5 04:30:45 12° S 04:35:32 86° W 04:40:47 10° N visible
